DW8463 Weather Reports


time (UTC)temp
C
wind
direction
speed
KPH
gust
KPH
rain 1hr
cm
rain 24hr
cm
rain mn
cm
humidity
%
barometer
mb
20260902142306 20 146 8.0 19.3 0.00 2.34 2.31 100 1011.0
20260902141803 20 120 6.4 16.1 0.00 2.34 2.31 100 1011.0
20260902141303 20 127 1.6 8.0 0.00 2.34 2.31 100 1011.0
20260902140803 20 142 0.0 9.7 0.00 2.34 2.31 100 1011.0
20260902140303 20 138 3.2 11.3 0.00 2.34 2.31 100 1011.0
20260902135803 20 141 6.4 14.5 0.00 2.34 2.31 100 1011.0
20260902135306 19 134 11.3 16.1 0.00 2.34 2.31 100 1010.9
20260902134803 19 162 0.0 9.7 0.00 2.34 2.31 100 1010.9
20260902134303 19 138 4.8 9.7 0.00 2.34 2.31 100 1011.0
20260902133803 18 131 3.2 8.0 0.00 2.34 2.31 100 1011.0
20260902133303 18 210 3.2 8.0 0.00 2.34 2.31 100 1011.2
20260902132306 18 195 8.0 11.3 0.00 2.34 2.31 100 1011.3
20260902131803 18 195 4.8 11.3 0.00 2.34 2.31 100 1011.4
20260902131304 18 187 4.8 11.3 0.00 2.34 2.31 100 1011.4
20260902130803 18 172 4.8 9.7 0.00 2.34 2.31 100 1011.4
20260902130303 17 95 3.2 8.0 0.00 2.34 2.31 100 1011.3
20260902125804 17 0 1.6 9.7 0.03 2.34 2.31 100 1011.6
20260902125305 17 0 3.2 8.0 0.03 2.34 2.31 100 1011.6
20260902124804 17 0 3.2 4.8 0.03 2.34 2.31 100 1011.8
20260902124303 17 0 1.6 4.8 0.03 2.34 2.31 100 1011.6
20260902123804 17 0 1.6 4.8 0.03 2.34 2.31 100 1011.3
20260902123303 17 0 4.8 8.0 0.03 2.34 2.31 100 1011.3
20260902122305 17 0 11.3 19.3 0.03 2.34 2.31 100 1010.4
20260902121803 17 0 1.6 4.8 0.03 2.34 2.31 100 1011.0
20260902121303 17 0 3.2 4.8 0.03 2.34 2.31 100 1010.5
20260902120303 17 0 1.6 4.8 0.03 2.34 2.31 100 1010.8
20260902115803 17 0 1.6 4.8 0.00 2.31 2.29 100 1010.8
20260902115306 17 0 0.0 3.2 0.00 2.31 2.29 100 1011.0
20260902114803 17 0 3.2 9.7 0.00 2.31 2.29 100 1011.0
20260902114303 17 0 0.0 3.2 0.00 2.31 2.29 100 1010.8
20260902113803 17 0 3.2 4.8 0.00 2.31 2.29 100 1010.9
20260902113303 17 0 1.6 4.8 0.00 2.31 2.29 100 1011.0
20260902112803 17 0 1.6 4.8 0.00 2.31 2.29 100 1011.2
20260902112305 17 0 3.2 4.8 0.00 2.31 2.29 100 1011.2
20260902111803 17 0 1.6 4.8 0.03 2.31 2.29 100 1011.4
20260902111303 17 0 3.2 4.8 0.03 2.31 2.29 100 1011.3
20260902110803 17 0 3.2 4.8 0.03 2.31 2.29 100 1011.6
20260902110303 17 0 0.0 4.8 0.03 2.31 2.29 100 1011.9
20260902105306 17 0 1.6 8.0 0.03 2.31 2.29 100 1012.2
20260902104804 17 0 0.0 4.8 0.03 2.31 2.29 100 1012.2
20260902104303 17 0 1.6 4.8 0.03 2.31 2.29 100 1012.4
20260902103803 17 0 3.2 9.7 0.03 2.31 2.29 100 1012.8
20260902103303 17 0 3.2 12.9 0.03 2.31 2.29 100 1013.0
20260902102804 17 0 1.6 8.0 0.03 2.31 2.29 100 1012.9
20260902102307 17 0 4.8 24.1 0.03 2.31 2.29 100 1013.1
20260902101804 17 0 3.2 8.0 0.00 2.29 2.26 100 1013.1
20260902101303 17 0 1.6 9.7 0.00 2.29 2.26 100 1012.5
20260902100804 17 0 3.2 9.7 0.00 2.29 2.26 100 1012.4
20260902100303 17 0 1.6 8.0 0.00 2.29 2.26 100 1012.2
20260902095804 17 0 1.6 4.8 0.00 2.29 2.26 100 1011.4
20260902095306 17 0 1.6 3.2 0.00 2.29 2.26 100 1011.2
20260902094804 17 0 0.0 1.6 0.00 2.29 2.26 100 1010.9
20260902094304 17 0 0.0 1.6 0.00 2.29 2.26 100 1010.8
20260902093804 17 0 0.0 0.0 0.00 2.29 2.26 100 1010.7
20260902093303 17 0 0.0 1.6 0.00 2.29 2.26 100 1010.7
20260902092803 17 0 1.6 8.0 0.00 2.29 2.26 100 1010.5
20260902092305 17 0 1.6 4.8 0.00 2.29 2.26 100 1010.5
20260902091803 17 0 0.0 4.8 0.00 2.29 2.26 100 1010.7
20260902091303 17 0 1.6 4.8 0.00 2.29 2.26 100 1010.6
20260902090803 17 0 0.0 4.8 0.00 2.29 2.26 100 1010.7
20260902090303 17 0 1.6 4.8 0.00 2.29 2.26 100 1010.8
20260902085803 17 0 3.2 4.8 0.00 2.29 2.26 100 1010.6
20260902085306 17 0 3.2 9.7 0.00 2.29 2.26 100 1010.6
20260902084803 17 0 0.0 4.8 0.00 2.29 2.26 100 1011.0
20260902084303 17 0 3.2 9.7 0.03 2.29 2.26 100 1010.8
20260902083803 17 0 4.8 12.9 0.03 2.29 2.26 100 1010.5
20260902083303 17 0 3.2 14.5 0.03 2.29 2.26 100 1010.5
20260902082803 17 0 1.6 4.8 0.05 2.29 2.26 100 1011.1
20260902082308 17 0 6.4 16.1 0.10 2.29 2.26 100 1010.5
20260902081803 17 0 1.6 9.7 0.10 2.29 2.26 100 1011.1
20260902081303 17 0 9.7 19.3 0.10 2.29 2.26 100 1010.2
20260902080803 17 0 6.4 14.5 0.13 2.29 2.26 100 1010.8
20260902080303 17 0 4.8 16.1 0.13 2.29 2.26 100 1010.6
20260902075803 17 0 4.8 16.1 0.15 2.29 2.26 100 1010.3
20260902074803 17 0 8.0 19.3 0.30 2.29 2.26 100 1010.0
20260902074304 17 0 6.4 16.1 0.38 2.26 2.24 100 1010.3
20260902073803 17 0 3.2 8.0 0.64 2.26 2.24 100 1010.3
20260902073303 17 0 4.8 8.0 0.94 2.26 2.24 100 1010.7
20260902072804 17 0 6.4 19.3 1.40 2.24 2.21 100 1010.8
20260902072309 17 0 8.0 16.1 1.55 2.18 2.16 100 1011.1
20260902071803 17 0 6.4 24.1 1.65 2.18 2.16 100 1011.2
20260902071303 17 0 11.3 27.4 1.68 2.18 2.16 100 1011.1
20260902070303 18 0 12.9 22.5 1.65 2.16 2.13 100 1012.9
20260902065306 18 0 9.7 16.1 1.93 2.08 2.06 100 1015.4
20260902064804 18 0 8.0 16.1 1.91 1.98 1.96 100 1016.3
20260902063803 19 0 3.2 19.3 1.55 1.63 1.60 100 1014.9
20260902063303 20 0 11.3 33.8 1.24 1.32 1.30 100 1015.2
20260902062803 20 0 9.7 27.4 0.76 0.84 0.81 100 1014.0
20260902061804 20 0 3.2 4.8 0.46 0.53 0.51 100 1010.7
20260902061303 20 0 1.6 8.0 0.43 0.51 0.48 100 1010.3
20260902060804 20 0 14.5 29.0 0.46 0.51 0.48 100 1009.4
20260902060303 20 0 14.5 20.9 0.48 0.51 0.48 100 1010.3
20260902055803 20 0 9.7 20.9 0.41 0.46 0.43 100 1010.6
20260902055306 20 0 9.7 19.3 0.13 0.15 0.13 100 1010.8
20260902054803 20 0 8.0 19.3 0.05 0.08 0.05 100 1010.1
20260902054303 21 0 6.4 14.5 0.05 0.08 0.05 100 1010.5
20260902053804 21 0 4.8 19.3 0.05 0.08 0.05 100 1010.7
20260902053303 21 0 8.0 9.7 0.05 0.08 0.05 100 1010.5
20260902052803 21 0 1.6 4.8 0.05 0.08 0.05 100 1009.9
20260902052306 21 0 1.6 4.8 0.05 0.08 0.05 100 1010.4
20260902051804 21 0 0.0 1.6 0.05 0.08 0.05 100 1010.8
20260902051303 21 0 0.0 1.6 0.05 0.08 0.05 100 1010.8
20260902050811 21 0 1.6 3.2 0.03 0.05 0.03 100 1010.7
20260902045803 21 0 0.0 3.2 0.03 0.03 0.03 100 1011.2
20260902045306 21 0 0.0 0.0 0.00 0.00 0.00 100 1011.1
20260902044803 21 0 0.0 0.0 0.00 0.00 0.00 100 1011.2
20260902044304 21 0 0.0 0.0 0.00 0.00 0.00 100 1010.5
20260902043803 21 0 0.0 0.0 0.00 0.00 0.00 100 1010.6
20260902043304 21 0 0.0 0.0 0.00 0.00 0.00 100 1010.4
20260902042803 21 0 0.0 0.0 0.00 0.00 0.00 100 1010.6
20260902042308 21 0 0.0 0.0 0.00 0.00 0.00 100 1010.9
20260902041803 21 0 0.0 0.0 0.00 0.00 0.00 100 1010.7
20260902041303 21 0 0.0 0.0 0.00 0.00 0.00 100 1010.4
20260902040803 21 0 0.0 0.0 0.00 0.00 0.00 100 1010.5
20260902040304 21 0 0.0 0.0 0.00 0.00 0.00 100 1010.7
20260902035305 20 0 0.0 0.0 0.00 0.00 0.00 100 1010.7
20260902034803 20 0 0.0 0.0 0.00 0.00 0.00 100 1010.9
20260902033803 21 0 0.0 0.0 0.00 0.00 0.00 100 1011.1
20260902033304 21 0 0.0 0.0 0.00 0.00 0.00 100 1011.3
20260902032804 21 0 0.0 0.0 0.00 0.00 0.00 100 1011.2
20260902032306 21 0 0.0 0.0 0.00 0.00 0.00 100 1011.3
20260902031803 21 0 0.0 0.0 0.00 0.00 0.00 100 1011.3
20260902031303 21 0 0.0 0.0 0.00 0.00 0.00 100 1011.3
20260902025804 21 0 0.0 0.0 0.00 0.00 0.00 100 1011.3
20260902025306 21 0 0.0 0.0 0.00 0.00 0.00 100 1011.2
20260902024303 21 0 0.0 0.0 0.00 0.00 0.00 100 1011.2
20260902023803 21 0 0.0 0.0 0.00 0.00 0.00 100 1011.1
20260902023304 21 0 0.0 0.0 0.00 0.00 0.00 100 1011.2
20260902022804 21 0 0.0 0.0 0.00 0.00 0.00 100 1011.2
20260902022306 21 0 0.0 0.0 0.00 0.00 0.00 100 1011.2
20260902021803 21 0 0.0 0.0 0.00 0.00 0.00 100 1011.1
20260902021304 21 0 0.0 0.0 0.00 0.00 0.00 100 1011.2
20260902020804 21 0 0.0 0.0 0.00 0.00 0.00 100 1011.2
20260902020303 21 0 0.0 0.0 0.00 0.00 0.00 100 1011.2
20260902015803 22 0 0.0 1.6 0.00 0.00 0.00 100 1011.1
20260902015306 22 0 0.0 0.0 0.00 0.00 0.00 100 1011.0
20260902014804 22 0 0.0 0.0 0.00 0.00 0.00 100 1011.0
20260902014304 22 306 0.0 0.0 0.00 0.00 0.00 100 1011.0
20260902013803 22 306 0.0 0.0 0.00 0.00 0.00 100 1011.0
20260902013304 22 306 0.0 0.0 0.00 0.00 0.00 100 1010.9
20260902012309 22 306 0.0 1.6 0.00 0.00 0.00 100 1010.9
20260902011803 23 306 0.0 0.0 0.00 0.00 0.00 100 1010.8
20260902011303 23 306 0.0 0.0 0.00 0.00 0.00 100 1010.8
20260902010803 23 306 0.0 0.0 0.00 0.00 0.00 100 1010.8
20260902010303 23 306 0.0 0.0 0.00 0.00 0.00 100 1010.8
20260902005803 23 306 0.0 0.0 0.00 0.00 0.00 93 1010.9
20260902005305 23 306 0.0 0.0 0.00 0.00 0.00 93 1010.9
20260902003803 24 306 0.0 0.0 0.00 0.00 0.00 93 1010.9
20260902003304 25 306 0.0 0.0 0.00 0.00 0.00 93 1010.9
20260902002803 25 306 0.0 0.0 0.00 0.00 0.00 93 1010.9
20260902001804 25 306 0.0 0.0 0.00 0.00 0.00 93 1011.0
20260902001303 25 306 0.0 0.0 0.00 0.00 0.00 93 1011.0
20260902000803 25 306 0.0 0.0 0.00 0.00 0.00 93 1011.0
20260902000304 25 306 0.0 0.0 0.00 0.00 0.00 93 1011.0
20260901235803 26 306 0.0 0.0 0.00 0.00 0.00 86 1011.0
20260901234803 26 306 0.0 0.0 0.00 0.00 0.00 86 1010.9
20260901234303 26 306 0.0 0.0 0.00 0.00 0.00 86 1010.8
20260901233303 26 306 0.0 0.0 0.00 0.00 0.00 86 1010.9
20260901232803 26 306 0.0 0.0 0.00 0.00 0.00 86 1010.9
20260901231803 27 306 0.0 3.2 0.00 0.00 0.00 86 1010.9
20260901231303 27 306 0.0 3.2 0.00 0.00 0.00 86 1010.8
20260901230303 26 306 0.0 0.0 0.00 0.00 0.00 86 1010.7
20260901224803 27 306 0.0 0.0 0.00 0.00 0.00 78 1010.6
20260901224303 27 306 0.0 0.0 0.00 0.00 0.00 78 1010.6
20260901223804 27 306 0.0 0.0 0.00 0.00 0.00 78 1010.6
20260901223304 28 306 0.0 1.6 0.00 0.00 0.00 78 1010.6
20260901222803 28 306 0.0 0.0 0.00 0.00 0.00 78 1010.8
20260901221803 28 267 1.6 4.8 0.00 0.00 0.00 78 1011.0
20260901221304 28 215 0.0 4.8 0.00 0.00 0.00 78 1011.0
20260901220803 28 197 0.0 8.0 0.00 0.00 0.00 78 1011.0
20260901220304 28 200 1.6 4.8 0.00 0.00 0.00 76 1010.9
20260901215803 28 217 3.2 8.0 0.00 0.00 0.00 67 1010.9
20260901215306 28 190 3.2 11.3 0.00 0.00 0.00 67 1010.9
20260901214803 28 193 3.2 9.7 0.00 0.00 0.00 67 1010.9
20260901214304 28 163 3.2 9.7 0.00 0.00 0.00 67 1010.8
20260901213803 28 193 1.6 4.8 0.00 0.00 0.00 67 1010.8
20260901213304 28 183 1.6 4.8 0.00 0.00 0.00 67 1010.8
20260901212803 28 201 0.0 0.0 0.00 0.00 0.00 67 1010.8
20260901212306 28 201 0.0 3.2 0.00 0.00 0.00 67 1010.6
20260901211304 28 211 3.2 8.0 0.00 0.00 0.00 67 1010.7
20260901210803 28 209 1.6 9.7 0.00 0.00 0.00 67 1010.9
20260901210304 28 199 1.6 4.8 0.00 0.00 0.00 67 1011.0
20260901205803 28 226 3.2 4.8 0.00 0.00 0.00 59 1010.8
20260901204803 29 191 3.2 4.8 0.00 0.00 0.00 59 1010.7
20260901204303 29 191 0.0 3.2 0.00 0.00 0.00 59 1010.9
20260901203803 30 191 1.6 4.8 0.00 0.00 0.00 59 1010.8
20260901203303 30 191 0.0 0.0 0.00 0.00 0.00 59 1010.7
20260901202306 29 191 0.0 4.8 0.00 0.00 0.00 59 1011.2
20260901201803 28 191 1.6 4.8 0.00 0.00 0.00 59 1011.3
20260901200803 28 191 0.0 0.0 0.00 0.00 0.00 59 1011.1
20260901200303 28 191 0.0 0.0 0.00 0.00 0.00 59 1011.4
20260901195804 28 191 0.0 0.0 0.00 0.00 0.00 59 1011.5
20260901194303 29 191 3.2 8.0 0.00 0.00 0.00 59 1011.5
20260901193803 29 238 0.0 3.2 0.00 0.00 0.00 59 1011.4
20260901193303 29 238 0.0 0.0 0.00 0.00 0.00 59 1011.4
20260901192803 29 238 0.0 0.0 0.00 0.00 0.00 59 1011.4
20260901192306 29 238 0.0 0.0 0.00 0.00 0.00 59 1011.3
20260901191803 29 238 0.0 1.6 0.00 0.00 0.00 59 1011.3
20260901191303 29 238 0.0 4.8 0.00 0.00 0.00 59 1011.3
20260901190804 29 238 1.6 8.0 0.00 0.00 0.00 59 1011.3
20260901190303 29 237 1.6 4.8 0.00 0.00 0.00 59 1011.5
20260901185306 30 228 1.6 4.8 0.00 0.00 0.00 58 1011.5
20260901184803 30 149 0.0 4.8 0.00 0.00 0.00 58 1011.4
20260901184304 30 142 1.6 4.8 0.00 0.00 0.00 58 1011.4
20260901183303 30 262 3.2 4.8 0.00 0.00 0.00 58 1011.7
20260901182803 30 243 3.2 8.0 0.00 0.00 0.00 58 1011.8
20260901182305 31 328 3.2 8.0 0.00 0.00 0.00 58 1011.9
20260901181303 31 273 3.2 9.7 0.00 0.00 0.00 58 1012.1
20260901180804 31 294 3.2 8.0 0.00 0.00 0.00 58 1012.1
20260901180303 31 280 3.2 8.0 0.00 0.00 0.00 58 1012.1
20260901175305 31 222 3.2 4.8 0.00 0.00 0.00 62 1012.3
20260901174804 31 235 1.6 9.7 0.00 0.00 0.00 62 1012.3
20260901174304 31 259 1.6 4.8 0.00 0.00 0.00 62 1012.2
20260901173803 30 79 3.2 4.8 0.00 0.00 0.00 62 1012.2
20260901173304 30 148 1.6 4.8 0.00 0.00 0.00 62 1012.2
20260901172305 30 201 1.6 4.8 0.00 0.00 0.00 62 1012.3
20260901171303 30 38 3.2 8.0 0.00 0.00 0.00 62 1012.5
20260901170803 29 277 4.8 8.0 0.00 0.00 0.00 62 1012.6
20260901170303 29 285 3.2 12.9 0.00 0.00 0.00 62 1012.6
20260901165306 28 250 1.6 9.7 0.00 0.00 0.00 63 1012.6
20260901164804 28 263 3.2 8.0 0.00 0.00 0.00 63 1012.6
20260901164304 28 331 4.8 11.3 0.00 0.00 0.00 63 1012.7
20260901163803 28 302 1.6 4.8 0.00 0.00 0.00 63 1012.8
20260901163304 28 314 1.6 8.0 0.00 0.00 0.00 63 1012.9
20260901162803 27 298 1.6 12.9 0.00 0.00 0.00 63 1012.9
20260901162306 27 345 4.8 9.7 0.00 0.00 0.00 63 1012.8
20260901161803 27 344 1.6 11.3 0.00 0.00 0.00 63 1012.8
20260901161303 27 330 4.8 9.7 0.00 0.00 0.00 63 1012.8
20260901160803 27 22 4.8 12.9 0.00 0.00 0.00 63 1012.8
20260901155804 27 28 3.2 4.8 0.00 0.00 0.00 73 1012.8
20260901155306 27 44 3.2 9.7 0.00 0.00 0.00 73 1012.7
20260901154303 26 335 1.6 4.8 0.00 0.00 0.00 73 1012.7
20260901153803 26 308 1.6 4.8 0.00 0.00 0.00 73 1012.6
20260901153303 26 19 3.2 8.0 0.00 0.00 0.00 73 1012.6
20260901152803 26 342 3.2 9.7 0.00 0.00 0.00 73 1012.6
20260901152305 26 359 1.6 8.0 0.00 0.00 0.00 73 1012.5
20260901151803 26 330 8.0 12.9 0.00 0.00 0.00 73 1012.6
20260901151304 25 13 3.2 4.8 0.00 0.00 0.00 73 1012.6
20260901150804 25 314 6.4 8.0 0.00 0.00 0.00 73 1012.6
20260901150303 25 281 1.6 4.8 0.00 0.00 0.00 76 1012.7
20260901145803 24 294 1.6 4.8 0.00 0.00 0.00 92 1012.8
20260901144303 23 221 0.0 0.0 0.00 0.00 0.00 92 1012.8
20260901143803 23 218 1.6 4.8 0.00 0.00 0.00 92 1012.9
20260901143303 22 316 0.0 0.0 0.00 0.00 0.00 92 1012.9
20260901142803 22 316 0.0 1.6 0.00 0.00 0.00 92 1012.9